Weather History for Visalia, CA

Change the Weather History Date:

Thursday, April 17, 2014

  Actual Average Record
Temperature  
Mean Temperature 68 °F -  
Max Temperature 84 °F 74 °F 97 °F (1954)
Min Temperature 53 °F 48 °F 36 °F (1941)
Cooling Degree Days 4    
Growing Degree Days 18 (Base 50)    
Moisture  
Dew Point 47 °F    
Average Humidity 47    
Maximum Humidity 72    
Minimum Humidity 25    
Precipitation  
Precipitation 0.00 in - - ()
Sea Level Pressure  
Sea Level Pressure 29.79 in    
Wind  
Wind Speed 4 mph (WNW)    
Max Wind Speed 13 mph    
Max Gust Speed -    
Visibility 10 miles    
Events      
Averages and records for this station are not official NWS values.
T = Trace of Precipitation, MM = Missing Value Source: NWS Daily Summary

Daily Weather History Graph

Daily Weather History Graph

Search for Another Location

Airport:

Trip Planner

Search our weather history database for the weather conditions in past years. The results will help you decide how hot, cold, wet, or windy it might be!

Date:

Astronomy

Apr. 17, 2014 Rise Set
Actual Time 6:21 AM PDT 7:33 PM PDT
Civil Twilight 5:54 AM PDT 8:00 PM PDT
Nautical Twilight 5:22 AM PDT 8:31 PM PDT
Astronomical Twilight 4:49 AM PDT 9:05 PM PDT
Moon 10:20 PM PDT (4/17) 8:00 AM PDT (4/17)
Length of Visible Light 14h 05m
Length of Day
13h 12m
Waning Gibbous, 93% of the Moon is Illuminated
Apr 17
Waning Gibbous
Apr 22
Last Quarter
Apr 28
New
May 6
First Quarter
May 14
Full

Hourly Weather History & Observations

Time (PDT) Temp. Dew Point Humidity Pressure Visibility Wind Dir Wind Speed Gust Speed Precip Events Conditions
12:15 AM 64.4 °F 44.6 °F 49% 29.82 in 10.0 mi NNW 8.1 mph - N/A   Clear
12:35 AM 64.4 °F 46.4 °F 52% 29.83 in 10.0 mi NNW 6.9 mph - N/A   Clear
12:55 AM 64.4 °F 44.6 °F 49% 29.82 in 10.0 mi NNW 5.8 mph - N/A   Clear
1:15 AM 64.4 °F 44.6 °F 49% 29.82 in 10.0 mi North 3.5 mph - N/A   Clear
1:35 AM 62.6 °F 44.6 °F 52% 29.82 in 10.0 mi Calm Calm - N/A   Clear
1:55 AM 62.6 °F 44.6 °F 52% 29.81 in 10.0 mi NNW 4.6 mph - N/A   Clear
2:15 AM 62.6 °F 42.8 °F 48% 29.81 in 10.0 mi ENE 4.6 mph - N/A   Clear
2:35 AM 60.8 °F 42.8 °F 52% 29.80 in 10.0 mi NE 3.5 mph - N/A   Clear
2:55 AM 60.8 °F 42.8 °F 52% 29.79 in 10.0 mi Calm Calm - N/A   Clear
3:15 AM 57.2 °F 42.8 °F 59% 29.79 in 10.0 mi Calm Calm - N/A   Clear
3:35 AM 55.4 °F 42.8 °F 63% 29.79 in 10.0 mi Calm Calm - N/A   Clear
3:55 AM 55.4 °F 44.6 °F 67% 29.78 in 10.0 mi SSE 3.5 mph - N/A   Clear
4:15 AM 53.6 °F 44.6 °F 72% 29.78 in 10.0 mi SSW 3.5 mph - N/A   Clear
4:35 AM 53.6 °F 44.6 °F 72% 29.78 in 10.0 mi SSW 3.5 mph - N/A   Clear
4:55 AM 53.6 °F 44.6 °F 72% 29.78 in 10.0 mi Calm Calm - N/A   Clear
5:15 AM 53.6 °F 42.8 °F 67% 29.78 in 10.0 mi Calm Calm - N/A   Clear
5:35 AM 53.6 °F 44.6 °F 72% 29.78 in 10.0 mi Calm Calm - N/A   Clear
5:55 AM 53.6 °F 44.6 °F 72% 29.79 in 10.0 mi Calm Calm - N/A   Clear
6:15 AM 53.6 °F 44.6 °F 72% 29.80 in 10.0 mi SE 3.5 mph - N/A   Clear
6:35 AM 53.6 °F 44.6 °F 72% 29.81 in 10.0 mi Calm Calm - N/A   Clear
6:55 AM 53.6 °F 44.6 °F 72% 29.81 in 10.0 mi East 3.5 mph - N/A   Clear
7:15 AM 55.4 °F 46.4 °F 72% 29.82 in 10.0 mi East 4.6 mph - N/A   Clear
7:35 AM 57.2 °F 46.4 °F 67% 29.82 in 10.0 mi East 3.5 mph - N/A   Clear
7:55 AM 60.8 °F 46.4 °F 59% 29.82 in 10.0 mi ESE 3.5 mph - N/A   Clear
8:15 AM 60.8 °F 48.2 °F 63% 29.83 in 10.0 mi SSE 3.5 mph - N/A   Clear
8:35 AM 62.6 °F 48.2 °F 59% 29.82 in 10.0 mi SSE 3.5 mph - N/A   Clear
9:15 AM 66.2 °F 48.2 °F 52% 29.83 in 10.0 mi SSW 3.5 mph - N/A   Clear
9:35 AM 66.2 °F 48.2 °F 52% 29.83 in 10.0 mi Calm Calm - N/A   Clear
9:55 AM 69.8 °F 48.2 °F 46% 29.83 in 10.0 mi SE 3.5 mph - N/A   Clear
10:15 AM 71.6 °F 48.2 °F 43% 29.84 in 10.0 mi Calm Calm - N/A   Clear
10:35 AM 71.6 °F 50.0 °F 46% 29.85 in 10.0 mi Calm Calm - N/A   Clear
10:55 AM 73.4 °F 50.0 °F 44% 29.85 in 10.0 mi SSE 3.5 mph - N/A   Clear
11:15 AM 75.2 °F 51.8 °F 44% 29.85 in 10.0 mi Calm Calm - N/A   Clear
11:35 AM 75.2 °F 50.0 °F 41% 29.84 in 10.0 mi Calm Calm - N/A   Clear
11:55 AM 78.8 °F 50.0 °F 36% 29.84 in 10.0 mi ENE 3.5 mph - N/A   Clear
12:15 PM 78.8 °F 50.0 °F 36% 29.83 in 10.0 mi West 4.6 mph - N/A   Clear
12:35 PM 78.8 °F 50.0 °F 36% 29.82 in 10.0 mi West 4.6 mph - N/A   Clear
12:55 PM 78.8 °F 51.8 °F 39% 29.82 in 10.0 mi West 5.8 mph - N/A   Clear
1:15 PM 80.6 °F 50.0 °F 34% 29.81 in 10.0 mi West 4.6 mph - N/A   Clear
1:35 PM 80.6 °F 48.2 °F 32% 29.80 in 10.0 mi SW 4.6 mph - N/A   Clear
1:55 PM 80.6 °F 48.2 °F 32% 29.80 in 10.0 mi West 6.9 mph - N/A   Clear
2:15 PM 80.6 °F 51.8 °F 37% 29.79 in 10.0 mi West 6.9 mph - N/A   Clear
2:35 PM 82.4 °F 50.0 °F 32% 29.79 in 10.0 mi West 6.9 mph - N/A   Clear
2:55 PM 82.4 °F 50.0 °F 32% 29.78 in 10.0 mi West 8.1 mph - N/A   Clear
3:15 PM 84.2 °F 51.8 °F 33% 29.77 in 10.0 mi West 8.1 mph - N/A   Clear
3:35 PM 84.2 °F 48.2 °F 29% 29.76 in 10.0 mi West 8.1 mph - N/A   Clear
3:55 PM 84.2 °F 46.4 °F 27% 29.75 in 10.0 mi West 6.9 mph - N/A   Clear
4:15 PM 82.4 °F 46.4 °F 28% 29.74 in 10.0 mi NW 6.9 mph - N/A   Clear
4:35 PM 84.2 °F 44.6 °F 25% 29.74 in 10.0 mi West 5.8 mph - N/A   Clear
4:55 PM 82.4 °F 46.4 °F 28% 29.74 in 10.0 mi WNW 3.5 mph - N/A   Clear
5:15 PM 82.4 °F 46.4 °F 28% 29.74 in 10.0 mi WNW 5.8 mph - N/A   Clear
5:35 PM 82.4 °F 44.6 °F 26% 29.74 in 10.0 mi WNW 5.8 mph - N/A   Clear
5:55 PM 82.4 °F 48.2 °F 30% 29.74 in 10.0 mi WNW 3.5 mph - N/A   Clear
6:15 PM 80.6 °F 48.2 °F 32% 29.73 in 10.0 mi WNW 3.5 mph - N/A   Clear
6:35 PM 80.6 °F 48.2 °F 32% 29.73 in 10.0 mi WNW 4.6 mph - N/A   Clear
6:55 PM 78.8 °F 48.2 °F 34% 29.72 in 10.0 mi WNW 4.6 mph - N/A   Clear
7:15 PM 78.8 °F 48.2 °F 34% 29.72 in 10.0 mi WNW 3.5 mph - N/A   Clear
7:35 PM 77.0 °F 48.2 °F 36% 29.72 in 10.0 mi WNW 3.5 mph - N/A   Clear
7:55 PM 77.0 °F 48.2 °F 36% 29.73 in 10.0 mi Calm Calm - N/A   Clear
8:15 PM 75.2 °F 48.2 °F 38% 29.73 in 10.0 mi Calm Calm - N/A   Clear
8:35 PM 75.2 °F 51.8 °F 44% 29.74 in 10.0 mi Calm Calm - N/A   Clear
8:55 PM 73.4 °F 48.2 °F 41% 29.74 in 10.0 mi Calm Calm - N/A   Clear
9:15 PM 73.4 °F 48.2 °F 41% 29.76 in 10.0 mi NW 3.5 mph - N/A   Clear
9:35 PM 71.6 °F 50.0 °F 46% 29.76 in 10.0 mi NW 3.5 mph - N/A   Clear
9:55 PM 73.4 °F 50.0 °F 44% 29.76 in 10.0 mi NNW 3.5 mph - N/A   Clear
10:15 PM 73.4 °F 50.0 °F 44% 29.76 in 10.0 mi North 4.6 mph - N/A   Clear
10:35 PM 71.6 °F 50.0 °F 46% 29.76 in 10.0 mi North 4.6 mph - N/A   Clear
10:55 PM 69.8 °F 51.8 °F 53% 29.77 in 10.0 mi NW 10.4 mph - N/A   Clear
11:15 PM 69.8 °F 48.2 °F 46% 29.77 in 10.0 mi NNW 10.4 mph - N/A   Clear
11:35 PM 69.8 °F 48.2 °F 46% 29.77 in 10.0 mi NNW 12.7 mph - N/A   Clear
11:55 PM 69.8 °F 48.2 °F 46% 29.78 in 10.0 mi NW 10.4 mph - N/A   Clear